Tracking 19570 objects as of 22-Feb-2019
HD Live streaming from Space Station
objects crossing your sky now

FLOCK 1C 5

Track FLOCK 1C 5 now!
10-day predictions
FLOCK 1C 5 is classified as:


NORAD ID: 40038
Int'l Code: 2014-033AE
Perigee: 594.9 km
Apogee: 616.5 km
Inclination: 97.9 °
Period: 96.7 minutes
Semi major axis: 6976 km
RCS: Unknown
Launch date: June 19, 2014
Source: United States (US)
Launch site: Orenburg, Russia (OREN)
aabbcc
Your satellite tracking list
Your tracking list is empty




NASA's NSSDC Master Catalog

Two Line Element Set (TLE):
1 40038U 14033AE  19053.06233411  .00000597  00000-0  68060-4 0  9999
2 40038  97.9274 336.5219 0015509  71.7529 288.5374 14.89799206254031
Source of the keplerian elements: AFSPC